Location: Bois de la Silve
(44.4667°N, 6.7833°E)
Time: 03:36:59
(UTC+00:00)

Cosmos 1241 Rocket - Pass Details

Date: 14 July 2020
Orbit: 935 x 1013 km, 65.8° (Epoch: 06 August)

Event Time Altitude Azimuth Distance (km) Brightness Sun altitude
Rises 01:24:12 0° 325° (NW) 3,686 7.9 -19.7°
Reaches altitude 10° 01:26:45 10° 325° (NW) 2,746 7.2 -19.5°
Maximum altitude 01:33:12 84° 239° (WSW) 1,008 4.5 -18.9°
Drops below altitude 10° 01:39:45 10° 152° (SSE) 2,775 6.6 -18.4°
Enters shadow 01:41:09 - 152° (SSE) 3,288 7.0 -18.2°
